This is the latest recevied weather packets stored in our database for station/object N0KTA-2. If no packets are shown the sender has not sent any weather packets the latest 10 day(s).
| Time | Temp. | Humidity | Pressure | Rain* | Wind** | Luminosity | Snow |
|---|---|---|---|---|---|---|---|
| 1788198502 | 36.67° C | 38% | 1008.5 hPa | 0 mm | - | - | - |
| 1788197902 | 36.67° C | 38% | 1008.7 hPa | 0 mm | - | - | - |
| 1788197302 | 36.11° C | 40% | 1009 hPa | 0 mm | - | - | - |
| 1788196703 | 35.56° C | 41% | 1009.1 hPa | 0 mm | - | - | - |
| 1788196102 | 35.56° C | 40% | 1009.1 hPa | 0 mm | - | - | - |
| 1788195503 | 35° C | 44% | 1009.1 hPa | 0 mm | - | - | - |
| 1788194902 | 34.44° C | 43% | 1009.3 hPa | 0 mm | - | - | - |
| 1788194303 | 34.44° C | 44% | 1009.5 hPa | 0 mm | - | - | - |
| 1788193702 | 33.89° C | 44% | 1009.4 hPa | 0 mm | - | - | - |
| 1788193103 | 33.89° C | 46% | 1009.5 hPa | 0 mm | - | - | - |
| 1788192502 | 33.33° C | 45% | 1009.7 hPa | 0 mm | - | - | - |
| 1788191901 | 32.78° C | 46% | 1009.8 hPa | 0 mm | - | - | - |
| 1788191302 | 32.78° C | 46% | 1009.8 hPa | 0 mm | - | - | - |
| 1788190701 | 32.22° C | 46% | 1009.8 hPa | 0 mm | - | - | - |
| 1788190102 | 32.22° C | 47% | 1009.6 hPa | 0 mm | - | - | - |
| 1788189511 | 31.67° C | 47% | 1009.6 hPa | 0 mm | - | - | - |
| 1788188901 | 31.11° C | 48% | 1009.8 hPa | 0 mm | - | - | - |
| 1788188302 | 30.56° C | 51% | 1009.7 hPa | 0 mm | - | - | - |
| 1788187701 | 30° C | 51% | 1009.8 hPa | 0 mm | - | - | - |
| 1788187102 | 29.44° C | 53% | 1009.7 hPa | 0 mm | - | - | - |
| 1788186503 | 28.89° C | 55% | 1009.8 hPa | 0 mm | - | - | - |
| 1788185904 | 28.89° C | 54% | 1009.8 hPa | 0 mm | - | - | - |
| 1788185304 | 28.33° C | 56% | 1009.8 hPa | 0 mm | - | - | - |
| 1788184703 | 27.78° C | 57% | 1009.8 hPa | 0 mm | - | - | - |
| 1788184103 | 27.22° C | 57% | 1009.9 hPa | 0 mm | - | - | - |
* Rain latest hour (hover to see other rain measurements)
** Current wind speed in m/s (hover to see current wind gust speed)